Time,TemperatureF,DewpointF,PressureIn,WindDirection,WindDirectionDegrees,WindSpeedMPH,WindSpeedGustMPH,Humidity,HourlyPrecipIn,Conditions,Clouds,dailyrainin,SoftwareType,DateUTC
2013-04-06 00:02:00,60.0,50.0,30.01,SE,135,5.0,8.0,69,0.00,,,0.00,,2013-04-06 05:02:00,
2013-04-06 00:13:00,60.0,50.0,30.01,SE,135,5.0,8.0,69,0.00,,,0.00,,2013-04-06 05:13:00,
2013-04-06 00:22:00,59.0,49.0,30.00,SSE,162,7.0,13.0,69,0.00,,,0.00,,2013-04-06 05:22:00,
2013-04-06 00:32:00,60.0,50.0,30.00,SSE,155,5.0,9.0,69,0.00,,,0.00,,2013-04-06 05:32:00,
2013-04-06 00:42:00,60.0,50.0,30.00,SSE,155,5.0,9.0,69,0.00,,,0.00,,2013-04-06 05:42:00,
2013-04-06 00:52:00,60.0,50.0,30.00,SE,129,5.0,10.0,69,0.00,,,0.00,,2013-04-06 05:52:00,
2013-04-06 01:02:00,59.0,49.0,29.99,ESE,113,5.0,10.0,70,0.00,,,0.00,,2013-04-06 06:02:00,
2013-04-06 01:12:00,59.0,49.0,29.99,ESE,113,5.0,10.0,70,0.00,,,0.00,,2013-04-06 06:12:00,
2013-04-06 01:22:00,59.0,49.0,29.99,SE,134,5.0,9.0,69,0.00,,,0.00,,2013-04-06 06:22:00,
2013-04-06 01:32:00,59.0,49.0,29.98,SSE,155,7.0,13.0,69,0.00,,,0.00,,2013-04-06 06:32:00,
2013-04-06 01:42:00,59.0,49.0,29.98,SSE,155,7.0,13.0,69,0.00,,,0.00,,2013-04-06 06:42:00,
2013-04-06 01:53:00,59.0,49.0,29.97,SSE,162,8.0,12.0,70,0.00,,,0.00,,2013-04-06 06:53:00,
2013-04-06 02:03:00,59.0,49.0,29.98,SE,145,6.0,12.0,69,0.00,,,0.00,,2013-04-06 07:03:00,
2013-04-06 02:12:00,59.0,49.0,29.98,SE,145,6.0,12.0,69,0.00,,,0.00,,2013-04-06 07:12:00,
2013-04-06 02:22:00,59.0,49.0,29.97,SE,129,6.0,10.0,69,0.00,,,0.00,,2013-04-06 07:22:00,
2013-04-06 02:33:00,59.0,49.0,29.97,SSE,153,5.0,10.0,70,0.00,,,0.00,,2013-04-06 07:33:00,
2013-04-06 02:43:00,59.0,49.0,29.97,SSE,153,5.0,10.0,70,0.00,,,0.00,,2013-04-06 07:43:00,
2013-04-06 02:53:00,59.0,49.0,29.96,ESE,122,5.0,11.0,70,0.00,,,0.00,,2013-04-06 07:53:00,
2013-04-06 03:02:00,59.0,49.0,29.95,ESE,122,5.0,12.0,70,0.00,,,0.00,,2013-04-06 08:02:00,
2013-04-06 03:12:00,59.0,49.0,29.95,ESE,122,5.0,12.0,70,0.00,,,0.00,,2013-04-06 08:12:00,
2013-04-06 03:22:00,59.0,49.0,29.94,SW,232,5.0,14.0,70,0.00,,,0.00,,2013-04-06 08:22:00,
2013-04-06 03:32:00,60.0,50.0,29.94,South,169,7.0,16.0,69,0.00,,,0.00,,2013-04-06 08:32:00,
2013-04-06 03:42:00,60.0,50.0,29.94,South,169,7.0,16.0,69,0.00,,,0.00,,2013-04-06 08:42:00,
2013-04-06 03:52:00,59.0,49.0,29.94,SSE,158,5.0,14.0,70,0.00,,,0.00,,2013-04-06 08:52:00,
2013-04-06 04:02:00,59.0,49.0,29.93,SSW,195,5.0,14.0,70,0.00,,,0.00,,2013-04-06 09:02:00,
2013-04-06 04:12:00,59.0,49.0,29.93,SSW,195,5.0,14.0,70,0.00,,,0.00,,2013-04-06 09:12:00,
2013-04-06 04:22:00,59.0,50.0,29.93,South,184,6.0,15.0,71,0.00,,,0.00,,2013-04-06 09:22:00,
2013-04-06 04:32:00,59.0,50.0,29.93,South,181,5.0,15.0,72,0.00,,,0.00,,2013-04-06 09:32:00,
2013-04-06 04:43:00,59.0,50.0,29.93,South,181,5.0,15.0,72,0.00,,,0.00,,2013-04-06 09:43:00,
2013-04-06 04:53:00,59.0,50.0,29.93,WSW,238,4.0,12.0,73,0.00,,,0.00,,2013-04-06 09:53:00,
2013-04-06 05:03:00,59.0,50.0,29.93,WSW,238,4.0,12.0,73,0.00,,,0.00,,2013-04-06 10:03:00,
2013-04-06 05:13:00,59.0,50.0,29.93,WSW,238,4.0,12.0,73,0.00,,,0.00,,2013-04-06 10:13:00,
2013-04-06 05:22:00,59.0,50.0,29.93,WSW,238,4.0,12.0,73,0.00,,,0.00,,2013-04-06 10:22:00,
2013-04-06 05:33:00,58.0,50.0,29.92,South,186,8.0,17.0,74,0.00,,,0.00,,2013-04-06 10:33:00,
2013-04-06 05:43:00,58.0,50.0,29.92,South,186,8.0,17.0,74,0.00,,,0.00,,2013-04-06 10:43:00,
2013-04-06 05:53:00,58.0,50.0,29.92,South,180,5.0,15.0,75,0.00,,,0.00,,2013-04-06 10:53:00,
2013-04-06 06:02:00,58.0,50.0,29.93,South,169,4.0,10.0,76,0.00,,,0.00,,2013-04-06 11:02:00,
2013-04-06 06:12:00,58.0,50.0,29.93,South,169,4.0,10.0,76,0.00,,,0.00,,2013-04-06 11:12:00,
2013-04-06 06:22:00,57.0,50.0,29.93,ESE,113,4.0,10.0,77,0.00,,,0.00,,2013-04-06 11:22:00,
2013-04-06 06:32:00,57.0,50.0,29.93,ESE,113,4.0,10.0,77,0.00,,,0.00,,2013-04-06 11:32:00,
2013-04-06 06:42:00,57.0,50.0,29.93,ESE,113,4.0,10.0,77,0.00,,,0.00,,2013-04-06 11:42:00,
2013-04-06 06:53:00,57.0,50.0,29.93,ESE,115,5.0,11.0,77,0.00,,,0.00,,2013-04-06 11:53:00,
2013-04-06 07:02:00,57.0,50.0,29.93,SSW,193,4.0,11.0,78,0.00,,,0.00,,2013-04-06 12:02:00,
2013-04-06 07:22:00,57.0,50.0,29.94,SSE,164,3.0,11.0,78,0.00,,,0.00,,2013-04-06 12:22:00,
2013-04-06 07:32:00,57.0,51.0,29.92,SE,134,6.0,13.0,79,0.00,,,0.00,,2013-04-06 12:32:00,
2013-04-06 07:43:00,57.0,51.0,29.92,SE,134,6.0,13.0,79,0.00,,,0.00,,2013-04-06 12:43:00,
2013-04-06 07:52:00,57.0,51.0,29.93,SSE,152,4.0,11.0,79,0.00,,,0.00,,2013-04-06 12:52:00,
2013-04-06 08:02:00,57.0,50.0,29.93,SE,125,5.0,14.0,77,0.00,,,0.00,,2013-04-06 13:02:00,
2013-04-06 08:12:00,57.0,50.0,29.93,SE,125,5.0,14.0,77,0.00,,,0.00,,2013-04-06 13:12:00,
2013-04-06 08:23:00,57.0,50.0,29.93,SE,125,5.0,14.0,77,0.00,,,0.00,,2013-04-06 13:23:00,
2013-04-06 08:32:00,58.0,50.0,29.93,SE,127,6.0,15.0,75,0.00,,,0.00,,2013-04-06 13:32:00,
2013-04-06 08:42:00,58.0,50.0,29.93,SE,127,6.0,15.0,75,0.00,,,0.00,,2013-04-06 13:42:00,
2013-04-06 08:53:00,59.0,47.0,29.93,West,266,8.0,19.0,64,0.00,,,0.00,,2013-04-06 13:53:00,
2013-04-06 09:04:00,60.0,47.0,29.92,ESE,105,10.0,19.0,61,0.00,,,0.00,,2013-04-06 14:04:00,
2013-04-06 09:12:00,60.0,47.0,29.92,ESE,105,10.0,19.0,61,0.00,,,0.00,,2013-04-06 14:12:00,
2013-04-06 09:22:00,61.0,47.0,29.93,SSW,192,8.0,22.0,60,0.00,,,0.00,,2013-04-06 14:22:00,
2013-04-06 09:32:00,61.0,46.0,29.93,South,181,10.0,23.0,57,0.00,,,0.00,,2013-04-06 14:32:00,
2013-04-06 09:42:00,61.0,46.0,29.93,South,181,10.0,23.0,57,0.00,,,0.00,,2013-04-06 14:42:00,
2013-04-06 09:53:00,61.0,46.0,29.93,South,181,10.0,23.0,57,0.00,,,0.00,,2013-04-06 14:53:00,
2013-04-06 10:02:00,63.0,45.0,29.92,SSW,197,12.0,21.0,52,0.00,,,0.00,,2013-04-06 15:02:00,
2013-04-06 10:12:00,63.0,45.0,29.92,SSW,197,12.0,21.0,52,0.00,,,0.00,,2013-04-06 15:12:00,
2013-04-06 10:23:00,63.0,45.0,29.93,SW,217,13.0,22.0,51,0.00,,,0.00,,2013-04-06 15:23:00,
2013-04-06 10:33:00,64.0,45.0,29.94,East,80,10.0,22.0,50,0.00,,,0.00,,2013-04-06 15:33:00,
2013-04-06 10:43:00,64.0,45.0,29.94,East,80,10.0,22.0,50,0.00,,,0.00,,2013-04-06 15:43:00,
2013-04-06 10:53:00,66.0,46.0,29.94,SSW,194,9.0,20.0,48,0.00,,,0.00,,2013-04-06 15:53:00,
2013-04-06 11:05:00,66.0,46.0,29.94,SSW,194,9.0,20.0,48,0.00,,,0.00,,2013-04-06 16:05:00,
2013-04-06 11:17:00,66.0,46.0,29.94,SSW,194,9.0,20.0,48,0.00,,,0.00,,2013-04-06 16:17:00,
2013-04-06 11:23:00,66.0,46.0,29.94,NW,318,8.0,20.0,48,0.00,,,0.00,,2013-04-06 16:23:00,
2013-04-06 11:32:00,67.0,46.0,29.93,SSE,162,10.0,22.0,46,0.00,,,0.00,,2013-04-06 16:32:00,
2013-04-06 11:42:00,67.0,46.0,29.93,SSE,162,10.0,22.0,46,0.00,,,0.00,,2013-04-06 16:42:00,
2013-04-06 11:52:00,68.0,46.0,29.93,West,276,11.0,24.0,46,0.00,,,0.00,,2013-04-06 16:52:00,
2013-04-06 12:02:00,69.0,47.0,29.93,SSE,165,12.0,23.0,45,0.00,,,0.00,,2013-04-06 17:02:00,
2013-04-06 12:12:00,69.0,47.0,29.93,SSE,165,12.0,23.0,45,0.00,,,0.00,,2013-04-06 17:12:00,
2013-04-06 12:22:00,70.0,48.0,29.94,SSW,211,11.0,20.0,46,0.00,,,0.00,,2013-04-06 17:22:00,
2013-04-06 12:32:00,70.0,48.0,29.92,SSW,210,12.0,20.0,46,0.00,,,0.00,,2013-04-06 17:32:00,
2013-04-06 12:42:00,70.0,48.0,29.92,SSW,210,12.0,20.0,46,0.00,,,0.00,,2013-04-06 17:42:00,
2013-04-06 12:52:00,71.0,50.0,29.91,SSW,201,13.0,23.0,47,0.00,,,0.00,,2013-04-06 17:52:00,
2013-04-06 13:03:00,71.0,50.0,29.90,SSW,212,11.0,24.0,47,0.00,,,0.00,,2013-04-06 18:03:00,
2013-04-06 13:12:00,71.0,50.0,29.90,SSW,212,11.0,24.0,47,0.00,,,0.00,,2013-04-06 18:12:00,
2013-04-06 13:23:00,71.0,51.0,29.89,South,184,12.0,22.0,49,0.00,,,0.00,,2013-04-06 18:23:00,
2013-04-06 13:32:00,72.0,52.0,29.88,South,174,9.0,21.0,49,0.00,,,0.00,,2013-04-06 18:32:00,
2013-04-06 13:42:00,72.0,52.0,29.88,South,174,9.0,21.0,49,0.00,,,0.00,,2013-04-06 18:42:00,
2013-04-06 13:52:00,72.0,52.0,29.88,SW,229,13.0,25.0,49,0.00,,,0.00,,2013-04-06 18:52:00,
2013-04-06 14:03:00,72.0,52.0,29.88,SSE,154,8.0,25.0,50,0.00,,,0.00,,2013-04-06 19:03:00,
2013-04-06 14:12:00,72.0,52.0,29.88,SSE,154,8.0,25.0,50,0.00,,,0.00,,2013-04-06 19:12:00,
2013-04-06 14:22:00,72.0,52.0,29.87,South,184,15.0,27.0,50,0.00,,,0.00,,2013-04-06 19:22:00,
2013-04-06 14:32:00,72.0,53.0,29.86,SW,223,14.0,26.0,51,0.00,,,0.00,,2013-04-06 19:32:00,
2013-04-06 14:42:00,72.0,53.0,29.86,SW,223,14.0,26.0,51,0.00,,,0.00,,2013-04-06 19:42:00,
2013-04-06 14:52:00,73.0,54.0,29.86,South,188,11.0,22.0,51,0.00,,,0.00,,2013-04-06 19:52:00,
2013-04-06 15:03:00,73.0,54.0,29.86,South,188,11.0,22.0,51,0.00,,,0.00,,2013-04-06 20:03:00,
2013-04-06 15:12:00,73.0,54.0,29.86,South,188,11.0,22.0,51,0.00,,,0.00,,2013-04-06 20:12:00,
2013-04-06 15:22:00,73.0,55.0,29.85,WSW,250,9.0,18.0,53,0.00,,,0.00,,2013-04-06 20:22:00,
2013-04-06 15:32:00,73.0,55.0,29.85,SSE,155,10.0,22.0,54,0.00,,,0.00,,2013-04-06 20:32:00,
2013-04-06 15:42:00,73.0,55.0,29.85,SSE,155,10.0,22.0,54,0.00,,,0.00,,2013-04-06 20:42:00,
2013-04-06 15:52:00,74.0,56.0,29.85,SW,219,10.0,24.0,54,0.00,,,0.00,,2013-04-06 20:52:00,
2013-04-06 16:02:00,74.0,56.0,29.84,South,186,9.0,21.0,54,0.00,,,0.00,,2013-04-06 21:02:00,
2013-04-06 16:13:00,74.0,56.0,29.83,SE,130,10.0,21.0,53,0.00,,,0.00,,2013-04-06 21:13:00,
2013-04-06 16:22:00,74.0,56.0,29.83,SE,130,10.0,21.0,53,0.00,,,0.00,,2013-04-06 21:22:00,
2013-04-06 16:33:00,74.0,56.0,29.83,South,179,8.0,21.0,54,0.00,,,0.00,,2013-04-06 21:33:00,
2013-04-06 16:43:00,74.0,56.0,29.83,South,179,8.0,21.0,54,0.00,,,0.00,,2013-04-06 21:43:00,
2013-04-06 16:52:00,75.0,57.0,29.83,SSW,212,7.0,22.0,54,0.00,,,0.00,,2013-04-06 21:52:00,
2013-04-06 17:03:00,75.0,57.0,29.82,SSE,154,9.0,15.0,54,0.00,,,0.00,,2013-04-06 22:03:00,
2013-04-06 17:13:00,75.0,57.0,29.82,SSE,154,9.0,15.0,54,0.00,,,0.00,,2013-04-06 22:13:00,
2013-04-06 17:23:00,75.0,57.0,29.82,SE,131,7.0,17.0,54,0.00,,,0.00,,2013-04-06 22:23:00,
2013-04-06 17:34:00,76.0,58.0,29.81,West,273,7.0,19.0,53,0.00,,,0.00,,2013-04-06 22:34:00,
2013-04-06 17:43:00,76.0,58.0,29.81,West,273,7.0,19.0,53,0.00,,,0.00,,2013-04-06 22:43:00,
2013-04-06 17:53:00,76.0,58.0,29.81,SE,125,7.0,17.0,54,0.00,,,0.00,,2013-04-06 22:53:00,
2013-04-06 18:03:00,76.0,58.0,29.81,SSW,204,8.0,17.0,53,0.00,,,0.00,,2013-04-06 23:03:00,
2013-04-06 18:13:00,76.0,58.0,29.81,SSW,204,8.0,17.0,53,0.00,,,0.00,,2013-04-06 23:13:00,
2013-04-06 18:23:00,75.0,58.0,29.80,WSW,255,5.0,19.0,56,0.00,,,0.00,,2013-04-06 23:23:00,
2013-04-06 18:34:00,76.0,59.0,29.81,South,188,5.0,16.0,55,0.00,,,0.00,,2013-04-06 23:34:00,
2013-04-06 18:42:00,76.0,59.0,29.81,South,188,5.0,16.0,55,0.00,,,0.00,,2013-04-06 23:42:00,
2013-04-06 18:52:00,76.0,58.0,29.80,SE,125,8.0,15.0,54,0.00,,,0.00,,2013-04-06 23:52:00,
2013-04-06 19:02:00,76.0,59.0,29.80,SE,141,7.0,18.0,55,0.00,,,0.00,,2013-04-07 00:02:00,
2013-04-06 19:13:00,76.0,59.0,29.80,SE,141,7.0,18.0,55,0.00,,,0.00,,2013-04-07 00:13:00,
2013-04-06 19:22:00,76.0,58.0,29.80,SSE,153,7.0,16.0,54,0.00,,,0.00,,2013-04-07 00:22:00,
2013-04-06 19:33:00,74.0,58.0,29.80,ESE,107,5.0,13.0,57,0.00,,,0.00,,2013-04-07 00:33:00,
2013-04-06 19:43:00,74.0,58.0,29.80,ESE,107,5.0,13.0,57,0.00,,,0.00,,2013-04-07 00:43:00,
2013-04-06 19:52:00,74.0,59.0,29.81,SE,135,4.0,14.0,59,0.00,,,0.00,,2013-04-07 00:52:00,
2013-04-06 20:02:00,73.0,58.0,29.81,SSE,153,5.0,12.0,60,0.00,,,0.00,,2013-04-07 01:02:00,
2013-04-06 20:12:00,73.0,58.0,29.81,SSE,153,5.0,12.0,60,0.00,,,0.00,,2013-04-07 01:12:00,
2013-04-06 20:23:00,73.0,58.0,29.81,SSE,153,5.0,12.0,60,0.00,,,0.00,,2013-04-07 01:23:00,
2013-04-06 20:32:00,72.0,58.0,29.82,SSE,158,6.0,11.0,62,0.00,,,0.00,,2013-04-07 01:32:00,
2013-04-06 20:43:00,72.0,58.0,29.82,SSE,158,6.0,11.0,62,0.00,,,0.00,,2013-04-07 01:43:00,
2013-04-06 20:53:00,72.0,59.0,29.82,ESE,117,5.0,11.0,63,0.00,,,0.00,,2013-04-07 01:53:00,
2013-04-06 21:03:00,71.0,59.0,29.82,SE,130,6.0,12.0,65,0.00,,,0.00,,2013-04-07 02:03:00,
2013-04-06 21:12:00,71.0,59.0,29.82,SE,130,6.0,12.0,65,0.00,,,0.00,,2013-04-07 02:12:00,
2013-04-06 21:23:00,70.0,59.0,29.82,ESE,107,7.0,13.0,67,0.00,,,0.00,,2013-04-07 02:23:00,
2013-04-06 21:32:00,70.0,59.0,29.83,ESE,114,6.0,13.0,67,0.00,,,0.00,,2013-04-07 02:32:00,
2013-04-06 21:43:00,70.0,59.0,29.83,ESE,114,6.0,13.0,67,0.00,,,0.00,,2013-04-07 02:43:00,
2013-04-06 21:52:00,70.0,59.0,29.83,SE,143,4.0,13.0,68,0.00,,,0.00,,2013-04-07 02:52:00,
2013-04-06 22:02:00,69.0,58.0,29.84,East,100,6.0,14.0,69,0.00,,,0.00,,2013-04-07 03:02:00,
2013-04-06 22:12:00,69.0,58.0,29.84,East,100,6.0,14.0,69,0.00,,,0.00,,2013-04-07 03:12:00,
2013-04-06 22:22:00,69.0,58.0,29.84,ESE,122,7.0,12.0,69,0.00,,,0.00,,2013-04-07 03:22:00,
2013-04-06 22:34:00,69.0,59.0,29.84,ESE,122,6.0,12.0,70,0.00,,,0.00,,2013-04-07 03:34:00,
2013-04-06 22:43:00,69.0,59.0,29.84,ESE,122,6.0,12.0,70,0.00,,,0.00,,2013-04-07 03:43:00,
2013-04-06 22:53:00,69.0,59.0,29.84,ESE,112,6.0,16.0,70,0.00,,,0.00,,2013-04-07 03:53:00,
2013-04-06 23:03:00,68.0,58.0,29.84,SSE,148,7.0,14.0,71,0.00,,,0.00,,2013-04-07 04:03:00,
2013-04-06 23:14:00,68.0,58.0,29.84,SSE,148,7.0,14.0,71,0.00,,,0.00,,2013-04-07 04:14:00,
2013-04-06 23:23:00,68.0,58.0,29.85,SSE,149,7.0,14.0,71,0.00,,,0.00,,2013-04-07 04:23:00,
2013-04-06 23:32:00,68.0,59.0,29.84,ENE,64,8.0,15.0,72,0.00,,,0.00,,2013-04-07 04:32:00,
2013-04-06 23:43:00,68.0,59.0,29.84,ENE,64,8.0,15.0,72,0.00,,,0.00,,2013-04-07 04:43:00,
2013-04-06 23:52:00,68.0,59.0,29.84,SE,137,7.0,15.0,72,0.00,,,0.00,,2013-04-07 04:52:00,